Regional Weather Roundup
Issued by NWS

Home | Current Version | Previous Version | Graphics & Text | Print | Product List | Glossary On
Versions: 1 2 3 4 5 6 7 8 9 10 11 12 13 14 15 16 17 18 19 20 21 22 23 24 25 26 27 28 29 30 31 32 33 34 35 36 37 38 39 40 41 42 43 44 45 46 47 48 49 50
000
ASUS43 KTOP 300508
RWRKS

WEATHER ROUNDUP FOR KANSAS
NATIONAL WEATHER SERVICE GOODLAND KS
1200 AM CDT SAT MAY 30 2015

NOTE:  "FAIR" INDICATES FEW OR NO CLOUDS BELOW 12,000 FEET WITH NO
SIGNIFICANT WEATHER AND/OR OBSTRUCTIONS TO VISIBILITY.

KSZ001>006-013>018-027>032-041>047-300600-
NORTHWEST KANSAS

CITY           SKY/WX    TMP DP  RH WIND       PRES   REMARKS
GOODLAND       CLOUDY    51  48  89 N13       30.27R
HAYS           CLOUDY    55  46  71 N21G31    30.16R
HILL CITY      CLOUDY    54  49  83 N14G22    30.21R
RUSSELL        CLOUDY    56  52  86 N17G28    30.13R
$$

KSZ061>065-074>080-084>089-300600-
SOUTHWEST KANSAS

CITY           SKY/WX    TMP DP  RH WIND       PRES   REMARKS
DODGE CITY     CLOUDY    58  53  84 N18       30.15R
ELKHART          N/A     58  48  69 N10         N/A
GARDEN CITY    PTCLDY    55  51  86 N16       30.18S
GREAT BEND     CLOUDY    57  50  77 N23G32    30.12R
LIBERAL        MOCLDY    61  52  72 N15G22    30.18R
PRATT          PTCLDY    59  54  82 N10       30.11S
$$

KSZ066>073-081>083-090>101-300600-
SOUTHEAST KANSAS

CITY           SKY/WX    TMP DP  RH WIND       PRES   REMARKS
CHANUTE        CLOUDY    64  63  96 CALM      29.99S FOG
COFFEYVILLE    CLOUDY    64  63  96 N6        29.98S
HUTCHINSON     MOCLDY    62  54  74 N12       30.04S
MEDICINE LODGE   N/A     62  54  74 N12       30.06R
NEWTON         CLOUDY    61  54  77 N14       30.04F
PARSONS        CLOUDY    65  64  97 CALM      30.00S
WICHITA INTL   CLOUDY    67  54  63 N12G22    30.02S
WICHITA JABRA  CLOUDY    64  56  75 N14G20    30.01R
WICHITA MCCONL CLOUDY    64  59  82 N10       30.02R
WINFIELD       CLOUDY    66  65  96 SE5       30.00F
$$

KSZ007>012-019>026-033>040-048>060-102>105-300600-
NORTHEAST KANSAS

CITY           SKY/WX    TMP DP  RH WIND       PRES   REMARKS
CONCORDIA      CLOUDY    55  51  86 N15G24    30.10R
EMPORIA        CLOUDY    64  64 100 S5        29.99S
LAWRENCE       CLOUDY    64  63  96 CALM      29.99S
MANHATTAN      CLOUDY    62  57  83 N9        30.00F
MARYSVILLE     CLOUDY    57  55  94 N13       30.07S
OLATHE IND     CLOUDY    64  64 100 SE6       30.00F
OLATHE EXE     CLOUDY    63  63 100 S5        29.98F FOG
SALINA         CLOUDY    60  55  83 N22       30.07R
TOPEKA BILLARD CLOUDY    65  64  97 CALM      29.99S
TOPEKA FORBES  CLOUDY    66  64  93 S3        29.99S
$$



USA.gov is the U.S. government's official web portal to all federal, state and local government web resources and services.